This is the latest recevied weather packets stored in our database for station/object KF0JHJ. If no packets are shown the sender has not sent any weather packets the latest 1 day(s).
| Time | Temp. | Humidity | Pressure | Rain* | Wind** | Luminosity | Snow |
|---|---|---|---|---|---|---|---|
| 1778002822 | 8.89° C | 46% | 1009.2 hPa | - | 0.45 m/s, 297° | 207 W/m² | - |
| 1778002519 | 8.89° C | 49% | 1009 hPa | - | 0.89 m/s, 345° | 196 W/m² | - |
| 1778002215 | 9.44° C | 47% | 1009.3 hPa | - | 0.89 m/s, 270° | 186 W/m² | - |
| 1778001914 | 9.44° C | 49% | 1009.1 hPa | - | 1.34 m/s, 18° | 213 W/m² | - |
| 1778001609 | 8.89° C | 51% | 1009.2 hPa | - | 0 m/s | 746 W/m² | - |
| 1778001304 | 8.33° C | 50% | 1009.3 hPa | - | 0 m/s | 264 W/m² | - |
| 1778001001 | 7.78° C | 51% | 1009.3 hPa | - | 1.34 m/s, 246° | 185 W/m² | - |
| 1778000698 | 7.78° C | 51% | 1009.2 hPa | - | 1.79 m/s, 228° | 135 W/m² | - |
| 1778000394 | 8.33° C | 51% | 1009.2 hPa | - | 0.89 m/s, 74° | 120 W/m² | - |
| 1778000090 | 8.33° C | 48% | 1009.3 hPa | - | 0.45 m/s, 229° | 116 W/m² | - |
| 1777999785 | 7.78° C | 48% | 1009 hPa | - | 0.45 m/s, 203° | 144 W/m² | - |
| 1777999482 | 8.33° C | 48% | 1009.1 hPa | - | 0.89 m/s, 344° | 187 W/m² | - |
| 1777999180 | 8.89° C | 47% | 1009.2 hPa | - | 1.34 m/s, 242° | 175 W/m² | - |
| 1777998879 | 8.89° C | 47% | 1009.1 hPa | - | 0 m/s | 164 W/m² | - |
| 1777998577 | 8.89° C | 45% | 1009.1 hPa | - | 0.45 m/s, 14° | 139 W/m² | - |
| 1777998272 | 9.44° C | 46% | 1009.1 hPa | - | 0 m/s | 172 W/m² | - |
| 1777997970 | 8.89° C | 44% | 1008.9 hPa | - | 1.34 m/s, 0° | 130 W/m² | - |
| 1777997666 | 8.89° C | 44% | 1009 hPa | - | 0.89 m/s, 115° | 664 W/m² | - |
| 1777997364 | 9.44° C | 44% | 1009.2 hPa | - | 2.24 m/s, 303° | 184 W/m² | - |
| 1777997062 | 8.89° C | 43% | 1009 hPa | - | 0.89 m/s, 353° | 126 W/m² | - |
| 1777996758 | 8.89° C | 44% | 1009 hPa | - | 0 m/s | 433 W/m² | - |
| 1777996455 | 9.44° C | 46% | 1009 hPa | - | 0 m/s | 113 W/m² | - |
| 1777996152 | 10° C | 43% | 1008.9 hPa | - | 2.68 m/s, 324° | 595 W/m² | - |
| 1777995848 | 9.44° C | 45% | 1009.2 hPa | - | 0 m/s | 377 W/m² | - |
| 1777995544 | 8.89° C | 46% | 1008.9 hPa | - | 2.68 m/s, 318° | 581 W/m² | - |
* Rain since midnight (hover to see other rain measurements)
** Current wind speed in m/s (hover to see current wind gust speed)